owner,sensor,date,latitude,longitude,vertical_datum,sea_water_temperature,qcFlag
Beacon,ioos:station:wmo:42874:2,2021-10-01T00:01:00Z,27.0305,-90.9892,30.0,28.5,11111222
Beacon,ioos:station:wmo:42874:2,2021-10-01T00:11:00Z,27.0305,-90.9892,30.0,28.5,11111222
Beacon,ioos:station:wmo:42874:2,2021-10-01T00:21:00Z,27.0305,-90.9892,30.0,28.5,11111222
Beacon,ioos:station:wmo:42874:2,2021-10-01T00:31:00Z,27.0305,-90.9893,30.0,28.5,11111222
Beacon,ioos:station:wmo:42874:2,2021-10-01T00:41:00Z,27.0305,-90.9893,30.0,28.5,11111222
Beacon,ioos:station:wmo:42874:2,2021-10-01T00:52:00Z,27.0305,-90.9887,30.0,28.5,11111222
Beacon,ioos:station:wmo:42874:2,2021-10-01T01:01:00Z,27.0305,-90.9887,30.0,28.5,11111222
Beacon,ioos:station:wmo:42874:2,2021-10-01T01:10:00Z,27.0305,-90.9887,30.0,28.5,11111222
Beacon,ioos:station:wmo:42874:2,2021-10-01T01:21:00Z,27.0305,-90.9890,30.0,28.5,11111222
Beacon,ioos:station:wmo:42874:2,2021-10-01T01:31:00Z,27.0305,-90.9890,30.0,28.5,11111222
Beacon,ioos:station:wmo:42874:2,2021-10-01T01:41:00Z,27.0305,-90.9891,30.0,28.5,11111222
Beacon,ioos:station:wmo:42874:2,2021-10-01T01:52:00Z,27.0305,-90.9891,30.0,28.5,11111222
Beacon,ioos:station:wmo:42874:2,2021-10-01T02:01:00Z,27.0305,-90.9891,30.0,28.5,11111222
Beacon,ioos:station:wmo:42874:2,2021-10-01T02:11:00Z,27.0305,-90.9891,30.0,28.5,11111222
Beacon,ioos:station:wmo:42874:2,2021-10-01T02:22:00Z,27.0305,-90.9891,30.0,28.5,11111222
Beacon,ioos:station:wmo:42874:2,2021-10-01T02:31:00Z,27.0305,-90.9891,30.0,28.5,11111222
Beacon,ioos:station:wmo:42874:2,2021-10-01T02:41:00Z,27.0305,-90.9891,30.0,28.5,11111222
Beacon,ioos:station:wmo:42874:2,2021-10-01T02:51:00Z,27.0305,-90.9891,30.0,28.5,11111222
Beacon,ioos:station:wmo:42874:2,2021-10-01T03:01:00Z,27.0305,-90.9891,30.0,28.5,11111222
Beacon,ioos:station:wmo:42874:2,2021-10-01T03:12:00Z,27.0305,-90.9891,30.0,28.5,11111222
Beacon,ioos:station:wmo:42874:2,2021-10-01T03:22:00Z,27.0305,-90.9893,30.0,28.5,11111222
Beacon,ioos:station:wmo:42874:2,2021-10-01T03:32:00Z,27.0305,-90.9893,30.0,28.5,11111222
Beacon,ioos:station:wmo:42874:2,2021-10-01T03:41:00Z,27.0305,-90.9893,30.0,28.5,11111222
Beacon,ioos:station:wmo:42874:2,2021-10-01T03:51:00Z,27.0305,-90.9887,30.0,28.5,11111222
Beacon,ioos:station:wmo:42874:2,2021-10-01T04:01:00Z,27.0305,-90.9887,30.0,28.5,11111222
Beacon,ioos:station:wmo:42874:2,2021-10-01T04:12:00Z,27.0305,-90.9893,30.0,28.5,11111222
Beacon,ioos:station:wmo:42874:2,2021-10-01T04:22:00Z,27.0306,-90.9896,30.0,28.5,11111222
Beacon,ioos:station:wmo:42874:2,2021-10-01T04:31:00Z,27.0306,-90.9896,30.0,28.5,11111222
Beacon,ioos:station:wmo:42874:2,2021-10-01T04:42:00Z,27.0305,-90.9894,30.0,28.5,11111222
Beacon,ioos:station:wmo:42874:2,2021-10-01T04:52:00Z,27.0305,-90.9893,30.0,28.5,11111222
Beacon,ioos:station:wmo:42874:2,2021-10-01T05:02:00Z,27.0305,-90.9893,30.0,28.5,11111222
Beacon,ioos:station:wmo:42874:2,2021-10-01T05:11:00Z,27.0305,-90.9893,30.0,28.5,11111222
Beacon,ioos:station:wmo:42874:2,2021-10-01T05:22:00Z,27.0305,-90.9893,30.0,28.5,11111222
Beacon,ioos:station:wmo:42874:2,2021-10-01T05:32:00Z,27.0305,-90.9894,30.0,28.5,11111222
Beacon,ioos:station:wmo:42874:2,2021-10-01T05:42:00Z,27.0305,-90.9894,30.0,28.5,11111222
Beacon,ioos:station:wmo:42874:2,2021-10-01T05:52:00Z,27.0305,-90.9894,30.0,28.5,11111222
Beacon,ioos:station:wmo:42874:2,2021-10-01T06:02:00Z,27.0305,-90.9894,30.0,28.5,11111222
Beacon,ioos:station:wmo:42874:2,2021-10-01T06:11:00Z,27.0305,-90.9894,30.0,28.5,11111222
Beacon,ioos:station:wmo:42874:2,2021-10-01T06:22:00Z,27.0305,-90.9893,30.0,28.5,11111222
Beacon,ioos:station:wmo:42874:2,2021-10-01T06:31:00Z,27.0305,-90.9893,30.0,28.5,11111222
Beacon,ioos:station:wmo:42874:2,2021-10-01T06:41:00Z,27.0305,-90.9893,30.0,28.5,11111222
Beacon,ioos:station:wmo:42874:2,2021-10-01T06:51:00Z,27.0305,-90.9893,30.0,28.5,11111222
Beacon,ioos:station:wmo:42874:2,2021-10-01T07:01:00Z,27.0305,-90.9893,30.0,28.5,11111222
Beacon,ioos:station:wmo:42874:2,2021-10-01T07:10:00Z,27.0305,-90.9893,30.0,28.5,11111222
Beacon,ioos:station:wmo:42874:2,2021-10-01T07:21:00Z,27.0305,-90.9893,30.0,28.5,11111222
Beacon,ioos:station:wmo:42874:2,2021-10-01T07:31:00Z,27.0305,-90.9893,30.0,28.5,11111222
Beacon,ioos:station:wmo:42874:2,2021-10-01T07:41:00Z,27.0306,-90.9893,30.0,28.5,11111222
Beacon,ioos:station:wmo:42874:2,2021-10-01T07:51:00Z,27.0306,-90.9893,30.0,28.5,11111222
Beacon,ioos:station:wmo:42874:2,2021-10-01T08:01:00Z,27.0306,-90.9893,30.0,28.5,11111222
Beacon,ioos:station:wmo:42874:2,2021-10-01T08:12:00Z,27.0306,-90.9893,30.0,28.5,11111222
Beacon,ioos:station:wmo:42874:2,2021-10-01T08:21:00Z,27.0306,-90.9893,30.0,28.5,11111222
Beacon,ioos:station:wmo:42874:2,2021-10-01T08:31:00Z,27.0306,-90.9893,30.0,28.5,11111222
Beacon,ioos:station:wmo:42874:2,2021-10-01T08:41:00Z,27.0305,-90.9893,30.0,28.5,11111222
Beacon,ioos:station:wmo:42874:2,2021-10-01T08:52:00Z,27.0305,-90.9893,30.0,28.5,11111222
Beacon,ioos:station:wmo:42874:2,2021-10-01T09:01:00Z,27.0305,-90.9893,30.0,28.5,11111222
Beacon,ioos:station:wmo:42874:2,2021-10-01T09:11:00Z,27.0305,-90.9893,30.0,28.5,11111222
Beacon,ioos:station:wmo:42874:2,2021-10-01T09:21:00Z,27.0305,-90.9892,30.0,28.5,11111222
Beacon,ioos:station:wmo:42874:2,2021-10-01T09:32:00Z,27.0305,-90.9893,30.0,28.5,11111222
Beacon,ioos:station:wmo:42874:2,2021-10-01T09:41:00Z,27.0305,-90.9893,30.0,28.5,11111222
Beacon,ioos:station:wmo:42874:2,2021-10-01T09:51:00Z,27.0305,-90.9892,30.0,28.5,11111222
Beacon,ioos:station:wmo:42874:2,2021-10-01T10:02:00Z,27.0305,-90.9892,30.0,28.5,11111222
Beacon,ioos:station:wmo:42874:2,2021-10-01T10:11:00Z,27.0305,-90.9892,30.0,28.5,11111222
Beacon,ioos:station:wmo:42874:2,2021-10-01T10:21:00Z,27.0305,-90.9892,30.0,28.4,11111222
Beacon,ioos:station:wmo:42874:2,2021-10-01T10:31:00Z,27.0305,-90.9892,30.0,28.5,11111222
Beacon,ioos:station:wmo:42874:2,2021-10-01T10:40:00Z,27.0306,-90.9892,30.0,28.4,11111222
Beacon,ioos:station:wmo:42874:2,2021-10-01T10:51:00Z,27.0306,-90.9892,30.0,28.5,11111222
Beacon,ioos:station:wmo:42874:2,2021-10-01T11:02:00Z,27.0306,-90.9892,30.0,28.5,11111222
Beacon,ioos:station:wmo:42874:2,2021-10-01T11:12:00Z,27.0306,-90.9892,30.0,28.5,11111222
Beacon,ioos:station:wmo:42874:2,2021-10-01T11:21:00Z,27.0306,-90.9892,30.0,28.5,11111222
Beacon,ioos:station:wmo:42874:2,2021-10-01T11:32:00Z,27.0305,-90.9893,30.0,28.5,11111222
Beacon,ioos:station:wmo:42874:2,2021-10-01T11:41:00Z,27.0305,-90.9893,30.0,28.5,11111222
Beacon,ioos:station:wmo:42874:2,2021-10-01T11:51:00Z,27.0305,-90.9893,30.0,28.5,11111222
Beacon,ioos:station:wmo:42874:2,2021-10-01T12:01:00Z,27.0305,-90.9893,30.0,28.5,11111222
Beacon,ioos:station:wmo:42874:2,2021-10-01T12:11:00Z,27.0305,-90.9893,30.0,28.5,11111222
Beacon,ioos:station:wmo:42874:2,2021-10-01T12:21:00Z,27.0304,-90.9894,30.0,28.5,11111222
Beacon,ioos:station:wmo:42874:2,2021-10-01T12:32:00Z,27.0304,-90.9895,30.0,28.5,11111222
Beacon,ioos:station:wmo:42874:2,2021-10-01T12:41:00Z,27.0304,-90.9895,30.0,28.5,11111222
Beacon,ioos:station:wmo:42874:2,2021-10-01T12:51:00Z,27.0303,-90.9894,30.0,28.5,11111222
Beacon,ioos:station:wmo:42874:2,2021-10-01T13:01:00Z,27.0304,-90.9893,30.0,28.5,11111222
Beacon,ioos:station:wmo:42874:2,2021-10-01T13:11:00Z,27.0304,-90.9893,30.0,28.5,11111222
Beacon,ioos:station:wmo:42874:2,2021-10-01T13:22:00Z,27.0304,-90.9893,30.0,28.5,11111222
Beacon,ioos:station:wmo:42874:2,2021-10-01T13:31:00Z,27.0305,-90.9892,30.0,28.5,11111222
Beacon,ioos:station:wmo:42874:2,2021-10-01T13:41:00Z,27.0305,-90.9892,30.0,28.5,11111222
Beacon,ioos:station:wmo:42874:2,2021-10-01T13:50:00Z,27.0306,-90.9891,30.0,28.5,11111222
Beacon,ioos:station:wmo:42874:2,2021-10-01T14:01:00Z,27.0306,-90.9891,30.0,28.5,11111222
Beacon,ioos:station:wmo:42874:2,2021-10-01T14:12:00Z,27.0306,-90.9892,30.0,28.5,11111222
Beacon,ioos:station:wmo:42874:2,2021-10-01T14:21:00Z,27.0306,-90.9892,30.0,28.5,11111222
Beacon,ioos:station:wmo:42874:2,2021-10-01T14:31:00Z,27.0306,-90.9892,30.0,28.5,11111222
Beacon,ioos:station:wmo:42874:2,2021-10-01T14:40:00Z,27.0306,-90.9892,30.0,28.5,11111222
Beacon,ioos:station:wmo:42874:2,2021-10-01T14:51:00Z,27.0306,-90.9892,30.0,28.5,11111222
Beacon,ioos:station:wmo:42874:2,2021-10-01T15:01:00Z,27.0306,-90.9892,30.0,28.5,11111222
Beacon,ioos:station:wmo:42874:2,2021-10-01T15:11:00Z,27.0306,-90.9892,30.0,28.5,11111222
Beacon,ioos:station:wmo:42874:2,2021-10-01T15:22:00Z,27.0306,-90.9892,30.0,28.5,11111222
Beacon,ioos:station:wmo:42874:2,2021-10-01T15:31:00Z,27.0306,-90.9893,30.0,28.5,11111222
Beacon,ioos:station:wmo:42874:2,2021-10-01T15:41:00Z,27.0306,-90.9893,30.0,28.5,11111222
Beacon,ioos:station:wmo:42874:2,2021-10-01T15:51:00Z,27.0306,-90.9893,30.0,28.5,11111222
Beacon,ioos:station:wmo:42874:2,2021-10-01T16:00:00Z,27.0306,-90.9892,30.0,28.5,11111222
Beacon,ioos:station:wmo:42874:2,2021-10-01T16:10:00Z,27.0306,-90.9892,30.0,28.5,11111222
Beacon,ioos:station:wmo:42874:2,2021-10-01T16:21:00Z,27.0306,-90.9892,30.0,28.5,11111222
Beacon,ioos:station:wmo:42874:2,2021-10-01T16:31:00Z,27.0306,-90.9892,30.0,28.5,11111222
Beacon,ioos:station:wmo:42874:2,2021-10-01T16:40:00Z,27.0306,-90.9895,30.0,28.5,11111222
Beacon,ioos:station:wmo:42874:2,2021-10-01T16:51:00Z,27.0307,-90.9894,30.0,28.6,11111222
Beacon,ioos:station:wmo:42874:2,2021-10-01T17:01:00Z,27.0306,-90.9894,30.0,28.6,11111222
Beacon,ioos:station:wmo:42874:2,2021-10-01T17:11:00Z,27.0306,-90.9893,30.0,28.6,11111222
Beacon,ioos:station:wmo:42874:2,2021-10-01T17:22:00Z,27.0306,-90.9893,30.0,28.6,11111222
Beacon,ioos:station:wmo:42874:2,2021-10-01T17:30:00Z,27.0306,-90.9893,30.0,28.6,11111222
Beacon,ioos:station:wmo:42874:2,2021-10-01T17:41:00Z,27.0306,-90.9893,30.0,28.6,11111222
Beacon,ioos:station:wmo:42874:2,2021-10-01T17:52:00Z,27.0306,-90.9893,30.0,28.6,11111222
Beacon,ioos:station:wmo:42874:2,2021-10-01T18:01:00Z,27.0306,-90.9893,30.0,28.6,11111222
Beacon,ioos:station:wmo:42874:2,2021-10-01T18:11:00Z,27.0306,-90.9893,30.0,28.6,11111222
Beacon,ioos:station:wmo:42874:2,2021-10-01T18:22:00Z,27.0306,-90.9893,30.0,28.7,11111222
Beacon,ioos:station:wmo:42874:2,2021-10-01T18:32:00Z,27.0306,-90.9893,30.0,28.7,11111222
Beacon,ioos:station:wmo:42874:2,2021-10-01T18:42:00Z,27.0306,-90.9893,30.0,28.7,11111222
Beacon,ioos:station:wmo:42874:2,2021-10-01T18:51:00Z,27.0307,-90.9894,30.0,28.7,11111222
Beacon,ioos:station:wmo:42874:2,2021-10-01T19:01:00Z,27.0306,-90.9895,30.0,28.7,11111222
Beacon,ioos:station:wmo:42874:2,2021-10-01T19:11:00Z,27.0306,-90.9893,30.0,28.7,11111222
Beacon,ioos:station:wmo:42874:2,2021-10-01T19:21:00Z,27.0306,-90.9893,30.0,28.7,11111222
Beacon,ioos:station:wmo:42874:2,2021-10-01T19:31:00Z,27.0306,-90.9893,30.0,28.7,11111222
Beacon,ioos:station:wmo:42874:2,2021-10-01T19:42:00Z,27.0306,-90.9893,30.0,28.7,11111222
Beacon,ioos:station:wmo:42874:2,2021-10-01T19:52:00Z,27.0306,-90.9893,30.0,28.7,11111222
Beacon,ioos:station:wmo:42874:2,2021-10-01T20:01:00Z,27.0306,-90.9893,30.0,28.7,11111222
Beacon,ioos:station:wmo:42874:2,2021-10-01T20:12:00Z,27.0306,-90.9893,30.0,28.7,11111222
Beacon,ioos:station:wmo:42874:2,2021-10-01T20:21:00Z,27.0306,-90.9893,30.0,28.7,11111222
Beacon,ioos:station:wmo:42874:2,2021-10-01T20:31:00Z,27.0306,-90.9893,30.0,28.7,11111222
Beacon,ioos:station:wmo:42874:2,2021-10-01T20:41:00Z,27.0306,-90.9889,30.0,28.7,11111222
Beacon,ioos:station:wmo:42874:2,2021-10-01T20:50:00Z,27.0306,-90.9891,30.0,28.7,11111222
Beacon,ioos:station:wmo:42874:2,2021-10-01T21:01:00Z,27.0306,-90.9892,30.0,28.7,11111222
Beacon,ioos:station:wmo:42874:2,2021-10-01T21:11:00Z,27.0306,-90.9893,30.0,28.6,11111222
Beacon,ioos:station:wmo:42874:2,2021-10-01T21:21:00Z,27.0306,-90.9893,30.0,28.6,11111222
Beacon,ioos:station:wmo:42874:2,2021-10-01T21:31:00Z,27.0306,-90.9893,30.0,28.6,11111222
Beacon,ioos:station:wmo:42874:2,2021-10-01T21:41:00Z,27.0306,-90.9893,30.0,28.6,11111222
Beacon,ioos:station:wmo:42874:2,2021-10-01T21:51:00Z,27.0306,-90.9893,30.0,28.7,11111222
Beacon,ioos:station:wmo:42874:2,2021-10-01T22:02:00Z,27.0306,-90.9893,30.0,28.7,11111222
Beacon,ioos:station:wmo:42874:2,2021-10-01T22:11:00Z,27.0307,-90.9894,30.0,28.7,11111222
Beacon,ioos:station:wmo:42874:2,2021-10-01T22:21:00Z,27.0307,-90.9894,30.0,28.7,11111222
Beacon,ioos:station:wmo:42874:2,2021-10-01T22:31:00Z,27.0307,-90.9895,30.0,28.6,11111222
Beacon,ioos:station:wmo:42874:2,2021-10-01T22:40:00Z,27.0307,-90.9894,30.0,28.6,11111222
Beacon,ioos:station:wmo:42874:2,2021-10-01T22:51:00Z,27.0307,-90.9894,30.0,28.6,11111222
Beacon,ioos:station:wmo:42874:2,2021-10-01T23:01:00Z,27.0306,-90.9894,30.0,28.6,11111222
Beacon,ioos:station:wmo:42874:2,2021-10-01T23:11:00Z,27.0306,-90.9893,30.0,28.6,11111222
Beacon,ioos:station:wmo:42874:2,2021-10-01T23:21:00Z,27.0306,-90.9893,30.0,28.6,11111222
Beacon,ioos:station:wmo:42874:2,2021-10-01T23:32:00Z,27.0306,-90.9893,30.0,28.6,11111222
Beacon,ioos:station:wmo:42874:2,2021-10-01T23:41:00Z,27.0306,-90.9892,30.0,28.6,11111222
Beacon,ioos:station:wmo:42874:2,2021-10-01T23:51:00Z,27.0306,-90.9893,30.0,28.6,11111222
Beacon,ioos:station:wmo:42874:2,2021-10-02T00:01:00Z,27.0306,-90.9893,30.0,28.6,11111222
Beacon,ioos:station:wmo:42874:2,2021-10-02T00:10:00Z,27.0306,-90.9893,30.0,28.6,11111222
Beacon,ioos:station:wmo:42874:2,2021-10-02T00:21:00Z,27.0306,-90.9893,30.0,28.6,11111222
Beacon,ioos:station:wmo:42874:2,2021-10-02T00:30:00Z,27.0306,-90.9893,30.0,28.6,11111222
Beacon,ioos:station:wmo:42874:2,2021-10-02T00:41:00Z,27.0306,-90.9893,30.0,28.6,11111222
Beacon,ioos:station:wmo:42874:2,2021-10-02T00:52:00Z,27.0305,-90.9891,30.0,28.6,11111222
Beacon,ioos:station:wmo:42874:2,2021-10-02T01:01:00Z,27.0305,-90.9891,30.0,28.6,11111222
Beacon,ioos:station:wmo:42874:2,2021-10-02T01:12:00Z,27.0305,-90.9891,30.0,28.7,11111222
Beacon,ioos:station:wmo:42874:2,2021-10-02T01:21:00Z,27.0305,-90.9891,30.0,28.7,11111222
Beacon,ioos:station:wmo:42874:2,2021-10-02T01:32:00Z,27.0305,-90.9891,30.0,28.8,11111222
Beacon,ioos:station:wmo:42874:2,2021-10-02T01:41:00Z,27.0305,-90.9891,30.0,28.8,11111222
Beacon,ioos:station:wmo:42874:2,2021-10-02T01:51:00Z,27.0306,-90.9891,30.0,28.8,11111222
Beacon,ioos:station:wmo:42874:2,2021-10-02T02:02:00Z,27.0306,-90.9891,30.0,28.8,11111222
Beacon,ioos:station:wmo:42874:2,2021-10-02T02:11:00Z,27.0306,-90.9892,30.0,28.8,11111222
Beacon,ioos:station:wmo:42874:2,2021-10-02T02:21:00Z,27.0306,-90.9892,30.0,28.8,11111222
Beacon,ioos:station:wmo:42874:2,2021-10-02T02:32:00Z,27.0306,-90.9893,30.0,28.8,11111222
Beacon,ioos:station:wmo:42874:2,2021-10-02T02:42:00Z,27.0306,-90.9893,30.0,28.8,11111222
Beacon,ioos:station:wmo:42874:2,2021-10-02T02:51:00Z,27.0305,-90.9897,30.0,28.8,11111222
Beacon,ioos:station:wmo:42874:2,2021-10-02T03:01:00Z,27.0305,-90.9897,30.0,28.8,11111222
Beacon,ioos:station:wmo:42874:2,2021-10-02T03:11:00Z,27.0310,-90.9895,30.0,28.8,11111222
Beacon,ioos:station:wmo:42874:2,2021-10-02T03:22:00Z,27.0308,-90.9899,30.0,28.8,11111222
Beacon,ioos:station:wmo:42874:2,2021-10-02T03:32:00Z,27.0308,-90.9898,30.0,28.8,11111222
Beacon,ioos:station:wmo:42874:2,2021-10-02T03:42:00Z,27.0308,-90.9898,30.0,28.8,11111222
Beacon,ioos:station:wmo:42874:2,2021-10-02T03:51:00Z,27.0308,-90.9898,30.0,28.8,11111222
Beacon,ioos:station:wmo:42874:2,2021-10-02T04:01:00Z,27.0307,-90.9899,30.0,28.8,11111222
Beacon,ioos:station:wmo:42874:2,2021-10-02T04:12:00Z,27.0307,-90.9899,30.0,28.8,11111222
Beacon,ioos:station:wmo:42874:2,2021-10-02T04:21:00Z,27.0307,-90.9898,30.0,28.7,11111222
Beacon,ioos:station:wmo:42874:2,2021-10-02T04:32:00Z,27.0306,-90.9895,30.0,28.7,11111222
Beacon,ioos:station:wmo:42874:2,2021-10-02T04:41:00Z,27.0306,-90.9894,30.0,28.7,11111222
Beacon,ioos:station:wmo:42874:2,2021-10-02T04:51:00Z,27.0306,-90.9893,30.0,28.7,11111222
Beacon,ioos:station:wmo:42874:2,2021-10-02T05:01:00Z,27.0306,-90.9893,30.0,28.7,11111222
Beacon,ioos:station:wmo:42874:2,2021-10-02T05:11:00Z,27.0306,-90.9894,30.0,28.7,11111222
Beacon,ioos:station:wmo:42874:2,2021-10-02T05:22:00Z,27.0306,-90.9894,30.0,28.7,11111222
Beacon,ioos:station:wmo:42874:2,2021-10-02T05:31:00Z,27.0305,-90.9894,30.0,28.7,11111222
Beacon,ioos:station:wmo:42874:2,2021-10-02T05:41:00Z,27.0305,-90.9896,30.0,28.7,11111222
Beacon,ioos:station:wmo:42874:2,2021-10-02T05:51:00Z,27.0305,-90.9896,30.0,28.7,11111222
Beacon,ioos:station:wmo:42874:2,2021-10-02T06:01:00Z,27.0306,-90.9894,30.0,28.7,11111222
Beacon,ioos:station:wmo:42874:2,2021-10-02T06:11:00Z,27.0306,-90.9894,30.0,28.7,11111222
Beacon,ioos:station:wmo:42874:2,2021-10-02T06:21:00Z,27.0306,-90.9894,30.0,28.7,11111222
Beacon,ioos:station:wmo:42874:2,2021-10-02T06:32:00Z,27.0306,-90.9894,30.0,28.7,11111222
Beacon,ioos:station:wmo:42874:2,2021-10-02T06:42:00Z,27.0306,-90.9893,30.0,28.6,11111222
Beacon,ioos:station:wmo:42874:2,2021-10-02T06:51:00Z,27.0306,-90.9894,30.0,28.6,11111222
Beacon,ioos:station:wmo:42874:2,2021-10-02T07:02:00Z,27.0306,-90.9894,30.0,28.6,11111222
Beacon,ioos:station:wmo:42874:2,2021-10-02T07:11:00Z,27.0306,-90.9894,30.0,28.7,11111222
Beacon,ioos:station:wmo:42874:2,2021-10-02T07:22:00Z,27.0306,-90.9894,30.0,28.7,11111222
Beacon,ioos:station:wmo:42874:2,2021-10-02T07:31:00Z,27.0306,-90.9894,30.0,28.7,11111222
Beacon,ioos:station:wmo:42874:2,2021-10-02T07:42:00Z,27.0306,-90.9894,30.0,28.7,11111222
Beacon,ioos:station:wmo:42874:2,2021-10-02T07:51:00Z,27.0308,-90.9895,30.0,28.7,11111222
Beacon,ioos:station:wmo:42874:2,2021-10-02T08:01:00Z,27.0308,-90.9895,30.0,28.7,11111222
Beacon,ioos:station:wmo:42874:2,2021-10-02T08:12:00Z,27.0308,-90.9895,30.0,28.7,11111222
Beacon,ioos:station:wmo:42874:2,2021-10-02T08:21:00Z,27.0307,-90.9895,30.0,28.7,11111222
Beacon,ioos:station:wmo:42874:2,2021-10-02T08:32:00Z,27.0307,-90.9894,30.0,28.7,11111222
Beacon,ioos:station:wmo:42874:2,2021-10-02T08:41:00Z,27.0307,-90.9894,30.0,28.7,11111222
Beacon,ioos:station:wmo:42874:2,2021-10-02T08:51:00Z,27.0306,-90.9893,30.0,28.7,11111222
Beacon,ioos:station:wmo:42874:2,2021-10-02T09:01:00Z,27.0306,-90.9893,30.0,28.7,11111222
Beacon,ioos:station:wmo:42874:2,2021-10-02T09:11:00Z,27.0306,-90.9893,30.0,28.6,11111222
Beacon,ioos:station:wmo:42874:2,2021-10-02T09:20:00Z,27.0306,-90.9893,30.0,28.7,11111222
Beacon,ioos:station:wmo:42874:2,2021-10-02T09:30:00Z,27.0306,-90.9893,30.0,28.7,11111222
Beacon,ioos:station:wmo:42874:2,2021-10-02T09:40:00Z,27.0306,-90.9893,30.0,28.7,11111222
Beacon,ioos:station:wmo:42874:2,2021-10-02T09:50:00Z,27.0306,-90.9892,30.0,28.7,11111222
Beacon,ioos:station:wmo:42874:2,2021-10-02T10:01:00Z,27.0306,-90.9892,30.0,28.7,11111222
Beacon,ioos:station:wmo:42874:2,2021-10-02T10:10:00Z,27.0306,-90.9893,30.0,28.6,11111222
Beacon,ioos:station:wmo:42874:2,2021-10-02T10:22:00Z,27.0306,-90.9893,30.0,28.6,11111222
Beacon,ioos:station:wmo:42874:2,2021-10-02T10:30:00Z,27.0307,-90.9894,30.0,28.6,11111222
Beacon,ioos:station:wmo:42874:2,2021-10-02T10:40:00Z,27.0307,-90.9894,30.0,28.6,11111222
Beacon,ioos:station:wmo:42874:2,2021-10-02T10:52:00Z,27.0307,-90.9894,30.0,28.6,11111222
Beacon,ioos:station:wmo:42874:2,2021-10-02T11:01:00Z,27.0307,-90.9895,30.0,28.6,11111222
Beacon,ioos:station:wmo:42874:2,2021-10-02T11:10:00Z,27.0307,-90.9896,30.0,28.6,11111222
Beacon,ioos:station:wmo:42874:2,2021-10-02T11:22:00Z,27.0306,-90.9896,30.0,28.6,11111222
Beacon,ioos:station:wmo:42874:2,2021-10-02T11:31:00Z,27.0306,-90.9896,30.0,28.6,11111222
Beacon,ioos:station:wmo:42874:2,2021-10-02T11:40:00Z,27.0306,-90.9896,30.0,28.6,11111222
Beacon,ioos:station:wmo:42874:2,2021-10-02T11:51:00Z,27.0306,-90.9896,30.0,28.6,11111222
Beacon,ioos:station:wmo:42874:2,2021-10-02T12:01:00Z,27.0306,-90.9893,30.0,28.6,11111222
Beacon,ioos:station:wmo:42874:2,2021-10-02T12:10:00Z,27.0306,-90.9893,30.0,28.6,11111222
Beacon,ioos:station:wmo:42874:2,2021-10-02T12:21:00Z,27.0306,-90.9893,30.0,28.6,11111222
Beacon,ioos:station:wmo:42874:2,2021-10-02T12:31:00Z,27.0306,-90.9892,30.0,28.6,11111222
Beacon,ioos:station:wmo:42874:2,2021-10-02T12:42:00Z,27.0306,-90.9892,30.0,28.6,11111222
Beacon,ioos:station:wmo:42874:2,2021-10-02T12:50:00Z,27.0306,-90.9892,30.0,28.6,11111222
Beacon,ioos:station:wmo:42874:2,2021-10-02T13:01:00Z,27.0306,-90.9892,30.0,28.6,11111222
Beacon,ioos:station:wmo:42874:2,2021-10-02T13:10:00Z,27.0306,-90.9892,30.0,28.6,11111222
Beacon,ioos:station:wmo:42874:2,2021-10-02T13:21:00Z,27.0306,-90.9892,30.0,28.6,11111222
Beacon,ioos:station:wmo:42874:2,2021-10-02T13:32:00Z,27.0306,-90.9892,30.0,28.6,11111222
Beacon,ioos:station:wmo:42874:2,2021-10-02T13:42:00Z,27.0306,-90.9892,30.0,28.6,11111222
Beacon,ioos:station:wmo:42874:2,2021-10-02T13:52:00Z,27.0306,-90.9892,30.0,28.6,11111222
Beacon,ioos:station:wmo:42874:2,2021-10-02T14:01:00Z,27.0306,-90.9891,30.0,28.6,11111222
Beacon,ioos:station:wmo:42874:2,2021-10-02T14:11:00Z,27.0306,-90.9891,30.0,28.6,11111222
Beacon,ioos:station:wmo:42874:2,2021-10-02T14:21:00Z,27.0306,-90.9891,30.0,28.7,11111222
Beacon,ioos:station:wmo:42874:2,2021-10-02T14:31:00Z,27.0306,-90.9891,30.0,28.6,11111222
Beacon,ioos:station:wmo:42874:2,2021-10-02T14:41:00Z,27.0306,-90.9891,30.0,28.6,11111222
Beacon,ioos:station:wmo:42874:2,2021-10-02T14:51:00Z,27.0306,-90.9895,30.0,28.6,11111222
Beacon,ioos:station:wmo:42874:2,2021-10-02T15:01:00Z,27.0306,-90.9895,30.0,28.6,11111222
Beacon,ioos:station:wmo:42874:2,2021-10-02T15:12:00Z,27.0306,-90.9895,30.0,28.6,11111222
Beacon,ioos:station:wmo:42874:2,2021-10-02T15:22:00Z,27.0306,-90.9895,30.0,28.6,11111222
Beacon,ioos:station:wmo:42874:2,2021-10-02T15:31:00Z,27.0306,-90.9893,30.0,28.6,11111222
Beacon,ioos:station:wmo:42874:2,2021-10-02T15:42:00Z,27.0306,-90.9893,30.0,28.6,11111222
Beacon,ioos:station:wmo:42874:2,2021-10-02T15:52:00Z,27.0306,-90.9893,30.0,28.7,11111222
Beacon,ioos:station:wmo:42874:2,2021-10-02T16:02:00Z,27.0306,-90.9893,30.0,28.7,11111222
Beacon,ioos:station:wmo:42874:2,2021-10-02T16:11:00Z,27.0306,-90.9893,30.0,28.7,11111222
Beacon,ioos:station:wmo:42874:2,2021-10-02T16:22:00Z,27.0306,-90.9893,30.0,28.7,11111222
Beacon,ioos:station:wmo:42874:2,2021-10-02T16:32:00Z,27.0313,-90.9897,30.0,28.7,11111222
Beacon,ioos:station:wmo:42874:2,2021-10-02T16:40:00Z,27.0310,-90.9895,30.0,28.7,11111222
Beacon,ioos:station:wmo:42874:2,2021-10-02T16:50:00Z,27.0310,-90.9895,30.0,28.7,11111222
Beacon,ioos:station:wmo:42874:2,2021-10-02T17:02:00Z,27.0308,-90.9893,30.0,28.7,11111222
Beacon,ioos:station:wmo:42874:2,2021-10-02T17:12:00Z,27.0308,-90.9893,30.0,28.7,11111222
Beacon,ioos:station:wmo:42874:2,2021-10-02T17:21:00Z,27.0307,-90.9892,30.0,28.7,11111222
Beacon,ioos:station:wmo:42874:2,2021-10-02T17:32:00Z,27.0307,-90.9893,30.0,28.7,11111222
Beacon,ioos:station:wmo:42874:2,2021-10-02T17:41:00Z,27.0307,-90.9893,30.0,28.7,11111222
Beacon,ioos:station:wmo:42874:2,2021-10-02T17:52:00Z,27.0307,-90.9894,30.0,28.7,11111222
Beacon,ioos:station:wmo:42874:2,2021-10-02T18:01:00Z,27.0307,-90.9894,30.0,28.8,11111222
Beacon,ioos:station:wmo:42874:2,2021-10-02T18:10:00Z,27.0307,-90.9894,30.0,28.8,11111222
Beacon,ioos:station:wmo:42874:2,2021-10-02T18:22:00Z,27.0306,-90.9893,30.0,28.9,11111222
Beacon,ioos:station:wmo:42874:2,2021-10-02T18:32:00Z,27.0306,-90.9893,30.0,28.9,11111222
Beacon,ioos:station:wmo:42874:2,2021-10-02T18:42:00Z,27.0306,-90.9893,30.0,28.9,11111222
Beacon,ioos:station:wmo:42874:2,2021-10-02T18:51:00Z,27.0308,-90.9896,30.0,29.0,11111222
Beacon,ioos:station:wmo:42874:2,2021-10-02T19:02:00Z,27.0309,-90.9898,30.0,29.0,11111222
Beacon,ioos:station:wmo:42874:2,2021-10-02T19:12:00Z,27.0308,-90.9897,30.0,29.0,11111222
Beacon,ioos:station:wmo:42874:2,2021-10-02T19:21:00Z,27.0308,-90.9897,30.0,29.0,11111222
Beacon,ioos:station:wmo:42874:2,2021-10-02T19:32:00Z,27.0306,-90.9893,30.0,29.0,11111222
Beacon,ioos:station:wmo:42874:2,2021-10-02T19:42:00Z,27.0306,-90.9893,30.0,29.0,11111222
Beacon,ioos:station:wmo:42874:2,2021-10-02T19:52:00Z,27.0307,-90.9892,30.0,29.0,11111222
Beacon,ioos:station:wmo:42874:2,2021-10-02T20:01:00Z,27.0307,-90.9892,30.0,29.1,11111222